sat.trackr.live / text

‹ back to catalog

IRIDIUM 170

NORAD 43930 · 2019-002J

PAYLOAD ACTIVE UNKNOWN

§ Identity

Operator
Country
US
Launch date
2019-01-11
Launch site
AFWTR
Launch vehicle
Mass (kg)
RCS (m²)

Purposes: comms

External: N2YO · Heavens-Above · Gunter

§ Orbital elements

Epoch: 2026-09-20T02:47:07.118304Z

Period
97.81 min
Inclination
86.6097°
Eccentricity
0.0002505
Mean motion
14.72251154 rev/d
Perigee alt
652.1 km
Apogee alt
655.7 km
Semi-major
7,032.0 km
B*
3.6296e-6
RAAN
313.8700°
Arg perigee
93.7345°
Mean anomaly
266.4159°
Rev number
41,322

§ Raw data

IRIDIUM 1701 43930U 19002J   26263.11605461  .00000048  00000+0  36296-5 0  99962 43930  86.6097 313.8700 0002505  93.7345 266.4159 14.72251154413229

JSON: /api/v1/satellites/43930 · /tle

For live sub-satellite position, see the globe view (requires WebGL).

§ Visibility from observer

Set your observer location to see the next 7 days of passes ≥ 10°. The values pass through the URL so the page stays shareable.

No JS? Fill the form by hand. The geolocation button needs JavaScript.